Time,TemperatureF,DewpointF,PressureIn,WindDirection,WindDirectionDegrees,WindSpeedMPH,WindSpeedGustMPH,Humidity,HourlyPrecipIn,Conditions,Clouds,dailyrainin,SoftwareType,DateUTC
2013-09-22 00:05:00,63.5,62.6,29.88,South,180,1.6,1.6,97,0.00,,,0.00,meteobridge,2013-09-22 04:05:00,
2013-09-22 00:15:00,63.7,62.8,29.88,North,0,0.0,0.0,97,0.00,,,0.00,meteobridge,2013-09-22 04:15:00,
2013-09-22 00:26:00,63.5,62.6,29.88,North,0,0.0,0.0,97,0.00,,,0.00,meteobridge,2013-09-22 04:26:00,
2013-09-22 00:36:00,63.3,62.4,29.87,South,180,0.0,-999.0,97,0.00,,,0.00,meteobridge,2013-09-22 04:36:00,
2013-09-22 00:46:00,63.3,62.4,29.87,North,0,0.0,0.0,97,0.00,,,0.00,meteobridge,2013-09-22 04:46:00,
2013-09-22 00:59:00,63.3,62.4,29.88,South,180,0.0,-999.0,97,0.00,,,0.00,meteobridge,2013-09-22 04:59:00,
2013-09-22 01:10:00,63.1,62.2,29.88,North,0,0.0,0.0,97,0.00,,,0.00,meteobridge,2013-09-22 05:10:00,
2013-09-22 01:20:00,63.0,62.1,29.88,North,0,0.0,0.0,97,0.00,,,0.00,meteobridge,2013-09-22 05:20:00,
2013-09-22 01:31:00,63.0,62.1,29.88,West,270,0.0,0.0,97,0.00,,,0.00,meteobridge,2013-09-22 05:31:00,
2013-09-22 01:42:00,62.8,61.9,29.88,West,270,0.0,0.0,97,0.00,,,0.00,meteobridge,2013-09-22 05:42:00,
2013-09-22 01:52:00,62.6,61.7,29.88,North,0,0.0,0.0,97,0.00,,,0.00,meteobridge,2013-09-22 05:52:00,
2013-09-22 02:03:00,62.2,61.7,29.88,North,0,0.0,0.0,98,0.00,,,0.00,meteobridge,2013-09-22 06:03:00,
2013-09-22 02:14:00,61.9,61.3,29.88,South,180,0.0,-999.0,98,0.00,,,0.00,meteobridge,2013-09-22 06:14:00,
2013-09-22 02:24:00,61.7,61.2,29.88,South,180,0.0,0.0,98,0.00,,,0.00,meteobridge,2013-09-22 06:24:00,
2013-09-22 02:34:00,61.7,61.2,29.88,North,0,0.0,0.0,98,0.00,,,0.00,meteobridge,2013-09-22 06:34:00,
2013-09-22 02:45:00,61.5,61.0,29.88,South,180,0.0,0.0,98,0.00,,,0.00,meteobridge,2013-09-22 06:45:00,
2013-09-22 02:56:00,61.2,60.6,29.87,South,180,0.0,0.0,98,0.00,,,0.00,meteobridge,2013-09-22 06:56:00,
2013-09-22 03:08:00,61.2,60.6,29.87,South,180,0.0,-999.0,98,0.00,,,0.00,meteobridge,2013-09-22 07:08:00,
2013-09-22 03:18:00,61.0,60.4,29.87,South,180,0.0,0.0,98,0.00,,,0.00,meteobridge,2013-09-22 07:18:00,
2013-09-22 03:28:00,60.8,60.3,29.87,South,180,0.0,0.0,98,0.00,,,0.00,meteobridge,2013-09-22 07:28:00,
2013-09-22 03:38:00,60.4,60.1,29.87,South,180,0.0,0.0,99,0.00,,,0.00,meteobridge,2013-09-22 07:38:00,
2013-09-22 03:49:00,60.6,60.3,29.87,South,180,0.0,0.0,99,0.00,,,0.00,meteobridge,2013-09-22 07:49:00,
2013-09-22 03:59:00,60.3,59.9,29.87,South,180,0.0,0.0,99,0.00,,,0.00,meteobridge,2013-09-22 07:59:00,
2013-09-22 04:09:00,60.1,59.7,29.87,South,180,0.0,0.0,99,0.00,,,0.00,meteobridge,2013-09-22 08:09:00,
2013-09-22 04:19:00,60.1,59.7,29.87,South,180,0.0,0.0,99,0.00,,,0.00,meteobridge,2013-09-22 08:19:00,
2013-09-22 04:29:00,59.9,59.5,29.87,South,180,0.0,0.0,99,0.00,,,0.00,meteobridge,2013-09-22 08:29:00,
2013-09-22 04:39:00,59.9,59.5,29.87,South,180,0.0,0.0,99,0.00,,,0.00,meteobridge,2013-09-22 08:39:00,
2013-09-22 04:50:00,59.9,59.5,29.87,South,180,0.0,0.0,99,0.00,,,0.00,meteobridge,2013-09-22 08:50:00,
2013-09-22 05:03:00,59.5,59.2,29.87,South,180,0.0,-999.0,99,0.00,,,0.00,meteobridge,2013-09-22 09:03:00,
2013-09-22 05:13:00,59.4,59.0,29.88,South,180,0.0,0.0,99,0.01,,,0.01,meteobridge,2013-09-22 09:13:00,
2013-09-22 05:24:00,59.0,58.6,29.88,West,270,0.0,0.0,99,0.01,,,0.01,meteobridge,2013-09-22 09:24:00,
2013-09-22 05:34:00,59.0,58.6,29.88,West,270,0.0,0.0,99,0.01,,,0.01,meteobridge,2013-09-22 09:34:00,
2013-09-22 05:44:00,58.6,58.3,29.88,West,270,0.0,0.0,99,0.01,,,0.01,meteobridge,2013-09-22 09:44:00,
2013-09-22 05:54:00,58.5,58.1,29.88,West,270,0.0,0.0,99,0.01,,,0.01,meteobridge,2013-09-22 09:54:00,
2013-09-22 06:04:00,58.3,57.9,29.88,West,270,0.0,0.0,99,0.01,,,0.01,meteobridge,2013-09-22 10:04:00,
2013-09-22 06:18:00,58.1,57.7,29.88,West,270,0.0,-999.0,99,0.00,,,0.01,meteobridge,2013-09-22 10:18:00,
2013-09-22 06:28:00,57.9,57.6,29.88,West,270,0.0,0.0,99,0.00,,,0.01,meteobridge,2013-09-22 10:28:00,
2013-09-22 06:39:00,57.7,57.4,29.89,West,270,0.0,0.0,99,0.00,,,0.01,meteobridge,2013-09-22 10:39:00,
2013-09-22 06:49:00,57.4,57.0,29.89,West,270,0.0,0.0,99,0.00,,,0.01,meteobridge,2013-09-22 10:49:00,
2013-09-22 07:00:00,57.4,57.0,29.89,West,270,0.0,0.0,99,0.00,,,0.01,meteobridge,2013-09-22 11:00:00,
2013-09-22 07:10:00,57.2,56.8,29.89,West,270,0.0,0.0,99,0.00,,,0.01,meteobridge,2013-09-22 11:10:00,
2013-09-22 07:22:00,57.2,56.8,29.90,West,270,0.0,-999.0,99,0.00,,,0.01,meteobridge,2013-09-22 11:22:00,
2013-09-22 07:39:00,56.8,56.5,29.90,West,270,0.0,-999.0,99,0.00,,,0.01,meteobridge,2013-09-22 11:39:00,
2013-09-22 07:50:00,56.7,56.3,29.91,West,270,0.0,0.0,99,0.00,,,0.01,meteobridge,2013-09-22 11:50:00,
2013-09-22 08:00:00,56.7,56.3,29.91,West,270,0.0,0.0,99,0.00,,,0.01,meteobridge,2013-09-22 12:00:00,
2013-09-22 08:10:00,57.0,56.7,29.91,West,270,0.0,0.0,99,0.00,,,0.01,meteobridge,2013-09-22 12:10:00,
2013-09-22 08:20:00,57.4,57.0,29.91,West,270,0.0,0.0,99,0.00,,,0.01,meteobridge,2013-09-22 12:20:00,
2013-09-22 08:30:00,57.7,57.4,29.92,West,270,0.0,-999.0,99,0.00,,,0.01,meteobridge,2013-09-22 12:30:00,
2013-09-22 08:41:00,58.8,58.5,29.92,West,270,0.0,-999.0,99,0.00,,,0.01,meteobridge,2013-09-22 12:41:00,
2013-09-22 08:52:00,60.1,59.7,29.92,West,270,0.0,0.0,99,0.00,,,0.01,meteobridge,2013-09-22 12:52:00,
2013-09-22 09:03:00,61.0,60.4,29.92,North,0,0.0,0.0,98,0.00,,,0.01,meteobridge,2013-09-22 13:03:00,
2013-09-22 09:14:00,63.7,62.8,29.93,North,0,0.0,0.0,97,0.00,,,0.01,meteobridge,2013-09-22 13:14:00,
2013-09-22 09:25:00,66.4,65.1,29.93,North,0,0.0,0.0,96,0.00,,,0.01,meteobridge,2013-09-22 13:25:00,
2013-09-22 09:35:00,68.4,64.0,29.93,North,0,0.0,0.0,86,0.00,,,0.01,meteobridge,2013-09-22 13:35:00,
2013-09-22 09:46:00,68.7,61.5,29.93,South,180,3.1,3.1,78,0.00,,,0.01,meteobridge,2013-09-22 13:46:00,
2013-09-22 09:57:00,70.2,61.5,29.93,West,270,0.0,0.0,74,0.00,,,0.01,meteobridge,2013-09-22 13:57:00,
2013-09-22 10:07:00,70.9,62.2,29.93,South,180,1.6,1.6,74,0.00,,,0.01,meteobridge,2013-09-22 14:07:00,
2013-09-22 10:18:00,72.3,62.1,29.93,North,0,0.0,-999.0,70,0.00,,,0.01,meteobridge,2013-09-22 14:18:00,
2013-09-22 10:29:00,72.0,61.2,29.94,South,180,1.6,1.6,69,0.00,,,0.01,meteobridge,2013-09-22 14:29:00,
2013-09-22 10:39:00,72.1,61.3,29.94,North,0,0.0,2.2,69,0.00,,,0.01,meteobridge,2013-09-22 14:39:00,
2013-09-22 10:50:00,72.9,61.7,29.94,South,180,3.8,3.8,68,0.00,,,0.01,meteobridge,2013-09-22 14:50:00,
2013-09-22 11:01:00,73.8,62.1,29.94,SE,135,3.8,3.8,67,0.00,,,0.01,meteobridge,2013-09-22 15:01:00,
2013-09-22 11:11:00,72.9,61.3,29.94,North,0,1.6,1.6,67,0.00,,,0.01,meteobridge,2013-09-22 15:11:00,
2013-09-22 11:22:00,73.9,62.8,29.94,South,180,6.0,6.0,68,0.00,,,0.01,meteobridge,2013-09-22 15:22:00,
2013-09-22 11:32:00,73.4,61.7,29.94,North,0,3.1,5.4,67,0.00,,,0.01,meteobridge,2013-09-22 15:32:00,
2013-09-22 11:42:00,76.1,64.8,29.94,North,0,2.2,3.1,68,0.00,,,0.01,meteobridge,2013-09-22 15:42:00,
2013-09-22 11:52:00,73.4,61.7,29.94,South,180,0.0,2.2,67,0.00,,,0.01,meteobridge,2013-09-22 15:52:00,
2013-09-22 12:03:00,75.0,64.2,29.94,North,0,2.2,-999.0,69,0.00,,,0.01,meteobridge,2013-09-22 16:03:00,
2013-09-22 12:14:00,73.9,62.8,29.95,North,0,3.1,3.1,68,0.00,,,0.01,meteobridge,2013-09-22 16:14:00,
2013-09-22 12:24:00,73.6,62.4,29.95,South,180,0.0,1.6,68,0.00,,,0.01,meteobridge,2013-09-22 16:24:00,
2013-09-22 12:35:00,74.3,63.1,29.95,South,180,3.1,3.8,68,0.00,,,0.01,meteobridge,2013-09-22 16:35:00,
2013-09-22 12:47:00,76.1,63.5,29.94,South,180,3.8,-999.0,65,0.00,,,0.01,meteobridge,2013-09-22 16:47:00,
2013-09-22 12:58:00,79.3,64.8,29.95,North,0,3.8,-999.0,61,0.00,,,0.01,meteobridge,2013-09-22 16:58:00,
2013-09-22 13:09:00,81.9,67.6,29.94,North,0,2.2,2.2,62,0.00,,,0.01,meteobridge,2013-09-22 17:09:00,
2013-09-22 13:19:00,79.5,64.9,29.94,North,0,1.6,1.6,61,0.00,,,0.01,meteobridge,2013-09-22 17:19:00,
2013-09-22 13:29:00,81.9,66.2,29.94,North,0,0.0,0.0,59,0.00,,,0.01,meteobridge,2013-09-22 17:29:00,
2013-09-22 13:39:00,80.2,64.0,29.94,North,0,3.8,3.8,58,0.00,,,0.01,meteobridge,2013-09-22 17:39:00,
2013-09-22 13:54:00,78.3,63.7,29.94,South,180,3.8,-999.0,61,0.00,,,0.01,meteobridge,2013-09-22 17:54:00,
2013-09-22 14:05:00,81.0,64.2,29.93,North,0,2.2,-999.0,57,0.00,,,0.01,meteobridge,2013-09-22 18:05:00,
2013-09-22 14:19:00,77.7,63.1,29.93,North,0,0.0,-999.0,61,0.00,,,0.01,meteobridge,2013-09-22 18:19:00,
2013-09-22 14:30:00,81.0,64.8,29.93,East,90,0.0,1.6,58,0.00,,,0.01,meteobridge,2013-09-22 18:30:00,
2013-09-22 14:40:00,80.4,62.2,29.93,North,0,1.6,1.6,54,0.00,,,0.01,meteobridge,2013-09-22 18:40:00,
2013-09-22 14:51:00,80.2,63.1,29.92,South,180,0.0,0.7,56,0.00,,,0.01,meteobridge,2013-09-22 18:51:00,
2013-09-22 15:01:00,81.7,64.4,29.92,SE,135,1.6,1.6,56,0.00,,,0.01,meteobridge,2013-09-22 19:01:00,
2013-09-22 15:12:00,79.2,61.5,29.92,North,0,1.6,1.6,55,0.00,,,0.01,meteobridge,2013-09-22 19:12:00,
2013-09-22 15:22:00,80.2,62.6,29.91,SE,135,2.2,3.8,55,0.00,,,0.01,meteobridge,2013-09-22 19:22:00,
2013-09-22 15:33:00,81.3,63.1,29.91,North,0,1.6,2.2,54,0.00,,,0.01,meteobridge,2013-09-22 19:33:00,
2013-09-22 15:43:00,80.6,63.0,29.91,North,0,3.1,3.1,55,0.00,,,0.01,meteobridge,2013-09-22 19:43:00,
2013-09-22 15:53:00,80.1,63.0,29.91,North,0,0.0,0.0,56,0.00,,,0.01,meteobridge,2013-09-22 19:53:00,
2013-09-22 16:04:00,79.9,62.2,29.91,South,180,2.2,2.2,55,0.00,,,0.01,meteobridge,2013-09-22 20:04:00,
2013-09-22 16:14:00,79.5,63.0,29.91,South,180,2.2,2.2,57,0.00,,,0.01,meteobridge,2013-09-22 20:14:00,
2013-09-22 16:24:00,79.9,62.8,29.92,South,180,2.2,3.1,56,0.00,,,0.01,meteobridge,2013-09-22 20:24:00,
2013-09-22 16:36:00,80.1,62.4,29.91,SE,135,3.8,3.8,55,0.00,,,0.01,meteobridge,2013-09-22 20:36:00,
2013-09-22 16:46:00,79.5,62.4,29.91,South,180,1.6,1.6,56,0.00,,,0.01,meteobridge,2013-09-22 20:46:00,
2013-09-22 16:57:00,79.7,62.6,29.91,South,180,0.0,0.0,56,0.00,,,0.01,meteobridge,2013-09-22 20:57:00,
2013-09-22 17:10:00,79.7,63.1,29.91,South,180,0.0,-999.0,57,0.00,,,0.01,meteobridge,2013-09-22 21:10:00,
2013-09-22 17:20:00,78.1,62.6,29.91,South,180,0.0,1.6,59,0.00,,,0.01,meteobridge,2013-09-22 21:20:00,
2013-09-22 17:30:00,77.2,62.2,29.91,North,0,1.6,1.6,60,0.00,,,0.01,meteobridge,2013-09-22 21:30:00,
2013-09-22 17:41:00,76.1,62.1,29.91,North,0,0.0,0.0,62,0.00,,,0.01,meteobridge,2013-09-22 21:41:00,
2013-09-22 17:51:00,75.2,61.7,29.91,South,180,0.0,0.0,63,0.00,,,0.01,meteobridge,2013-09-22 21:51:00,
2013-09-22 18:03:00,75.4,62.4,29.92,North,0,1.6,1.6,64,0.00,,,0.01,meteobridge,2013-09-22 22:03:00,
2013-09-22 18:13:00,76.3,63.1,29.92,West,270,0.0,0.0,64,0.00,,,0.01,meteobridge,2013-09-22 22:13:00,
2013-09-22 18:23:00,75.4,62.8,29.91,South,180,0.0,0.0,65,0.00,,,0.01,meteobridge,2013-09-22 22:23:00,
2013-09-22 18:34:00,75.0,63.0,29.92,East,90,0.0,0.0,66,0.00,,,0.01,meteobridge,2013-09-22 22:34:00,
2013-09-22 18:44:00,74.3,62.2,29.92,North,0,0.0,0.0,66,0.00,,,0.01,meteobridge,2013-09-22 22:44:00,
2013-09-22 18:54:00,73.8,62.1,29.91,East,90,1.6,2.2,67,0.00,,,0.01,meteobridge,2013-09-22 22:54:00,
2013-09-22 19:04:00,72.9,60.8,29.92,North,0,0.0,0.0,66,0.00,,,0.01,meteobridge,2013-09-22 23:04:00,
2013-09-22 19:16:00,72.3,61.2,29.92,South,180,0.0,-999.0,68,0.00,,,0.01,meteobridge,2013-09-22 23:16:00,
2013-09-22 19:26:00,71.4,61.2,29.92,South,180,0.0,-999.0,70,0.00,,,0.01,meteobridge,2013-09-22 23:26:00,
2013-09-22 19:36:00,70.7,61.2,29.93,West,270,0.0,0.0,72,0.00,,,0.01,meteobridge,2013-09-22 23:36:00,
2013-09-22 19:47:00,69.8,60.4,29.93,West,270,0.0,0.0,72,0.00,,,0.01,meteobridge,2013-09-22 23:47:00,
2013-09-22 19:58:00,68.9,60.3,29.93,West,270,0.0,0.0,74,0.00,,,0.01,meteobridge,2013-09-22 23:58:00,
2013-09-22 20:09:00,68.2,60.3,29.93,West,270,0.0,0.0,76,0.00,,,0.00,meteobridge,2013-09-23 00:09:00,
2013-09-22 20:19:00,67.5,60.4,29.94,West,270,0.0,0.0,78,0.00,,,0.00,meteobridge,2013-09-23 00:19:00,
2013-09-22 20:30:00,67.1,60.4,29.94,West,270,0.0,0.0,79,0.00,,,0.00,meteobridge,2013-09-23 00:30:00,
2013-09-22 20:40:00,66.4,59.7,29.94,West,270,0.0,0.0,79,0.00,,,0.00,meteobridge,2013-09-23 00:40:00,
2013-09-22 20:50:00,66.0,60.1,29.95,West,270,0.0,0.0,81,0.00,,,0.00,meteobridge,2013-09-23 00:50:00,
2013-09-22 21:01:00,66.0,60.1,29.95,West,270,0.0,-999.0,81,0.00,,,0.00,meteobridge,2013-09-23 01:01:00,
2013-09-22 21:11:00,65.3,60.3,29.96,West,270,0.0,0.0,84,0.00,,,0.00,meteobridge,2013-09-23 01:11:00,
2013-09-22 21:22:00,64.9,59.9,29.96,West,270,0.0,-999.0,84,0.00,,,0.00,meteobridge,2013-09-23 01:22:00,
2013-09-22 21:32:00,64.6,59.9,29.96,West,270,0.0,0.0,85,0.00,,,0.00,meteobridge,2013-09-23 01:32:00,
2013-09-22 21:42:00,64.4,59.7,29.96,West,270,0.0,0.0,85,0.00,,,0.00,meteobridge,2013-09-23 01:42:00,
2013-09-22 21:53:00,64.0,59.2,29.96,West,270,0.0,0.0,84,0.00,,,0.00,meteobridge,2013-09-23 01:53:00,
2013-09-22 22:03:00,63.7,58.8,29.96,West,270,0.0,0.0,84,0.00,,,0.00,meteobridge,2013-09-23 02:03:00,
2013-09-22 22:15:00,63.1,58.6,29.96,West,270,0.0,-999.0,85,0.00,,,0.00,meteobridge,2013-09-23 02:15:00,
2013-09-22 22:26:00,62.8,58.8,29.97,West,270,0.0,0.0,87,0.00,,,0.00,meteobridge,2013-09-23 02:26:00,
2013-09-22 22:36:00,62.6,59.0,29.96,West,270,0.0,0.0,88,0.00,,,0.00,meteobridge,2013-09-23 02:36:00,
2013-09-22 22:47:00,62.8,59.5,29.97,West,270,0.0,0.0,89,0.00,,,0.00,meteobridge,2013-09-23 02:47:00,
2013-09-22 22:57:00,61.9,59.0,29.97,West,270,0.0,0.0,90,0.00,,,0.00,meteobridge,2013-09-23 02:57:00,
2013-09-22 23:08:00,61.7,59.0,29.97,North,0,0.0,-999.0,91,0.00,,,0.00,meteobridge,2013-09-23 03:08:00,
2013-09-22 23:18:00,61.5,59.2,29.98,North,0,0.0,0.0,92,0.00,,,0.00,meteobridge,2013-09-23 03:18:00,
2013-09-22 23:29:00,61.2,58.8,29.98,North,0,0.0,0.0,92,0.00,,,0.00,meteobridge,2013-09-23 03:29:00,
2013-09-22 23:39:00,61.2,58.8,29.98,North,0,0.0,0.0,92,0.00,,,0.00,meteobridge,2013-09-23 03:39:00,
2013-09-22 23:50:00,61.0,59.0,29.98,North,0,0.0,0.0,93,0.00,,,0.00,meteobridge,2013-09-23 03:50:00,